Regional Weather Roundup
Issued by NWS Boston, MA

Current Version | Previous Version | Text Only | Print | Product List | Glossary On
Versions: 1 2 3 4 5 6 7 8 9 10 11 12 13 14 15 16 17 18 19 20 21 22 23 24 25 26 27 28 29 30 31 32 33 34 35 36 37 38 39 40 41 42 43 44 45 46 47 48 49 50
000 ASUS41 KBOX 232210 RWRBOX REGIONAL WEATHER ROUNDUP NATIONAL WEATHER SERVICE BOSTON/NORTON MA 600 PM EDT TUE JUL 23 2019 NOTE: "FAIR" INDICATES FEW OR NO CLOUDS BELOW 12,000 FEET WITH NO SIGNIFICANT WEATHER AND/OR OBSTRUCTIONS TO VISIBILITY. MAZALL-232300- EASTERN MASSACHUSETTS CITY SKY/WX TMP DP RH WIND PRES REMARKS BOSTON PTSUNNY 69 55 60 S7 29.90R BEVERLY CLOUDY 69 57 65 NW7 29.89R LAWRENCE CLOUDY 69 57 65 W3 29.91R BEDFORD PTSUNNY 72 57 59 N3 29.88R BLUE HILL N/A 65 58 78 CALM 29.90R NORWOOD CLOUDY 71 58 63 N3 29.90R MARSHFIELD FAIR 68 57 68 CALM 29.89R PLYMOUTH CLOUDY 65 57 75 N6 29.90R TAUNTON PTSUNNY 69 58 67 VRB5 29.88S NEW BEDFORD PTSUNNY 67 60 78 N5 29.88S $$ MAZALL-232300- CAPE COD AND THE ISLANDS CITY SKY/WX TMP DP RH WIND PRES REMARKS FALMOUTH FAIR 64 59 82 N7G15 29.89R HYANNIS FAIR 66 58 75 N9 29.87R CHATHAM NOT AVBL PROVINCETOWN PTSUNNY 64 58 80 N8 29.89R NANTUCKET CLOUDY 66 62 87 N14 29.86S MARTHAS VNYRD CLOUDY 66 60 81 N9 29.88R $$ MAZALL-232300- CENTRAL AND WESTERN MASSACHUSETTS CITY SKY/WX TMP DP RH WIND PRES REMARKS WORCESTER PTSUNNY 67 60 78 CALM 29.93S FITCHBURG FAIR 72 58 61 VRB3 29.91R ORANGE PTSUNNY 73 57 57 CALM 29.91R SPRINGFIELD PTSUNNY 74 55 51 NE6 29.88S WESTFIELD PTSUNNY 74 61 63 CALM 29.89R NORTH ADAMS FAIR 72 60 66 CALM 29.88S PITTSFIELD FAIR 72 58 61 CALM 29.89S $$ RIZALL-232300- RHODE ISLAND CITY SKY/WX TMP DP RH WIND PRES REMARKS PROVIDENCE CLOUDY 70 58 65 NW8 29.90R NEWPORT CLOUDY 68 61 78 N6 29.89S BLOCK ISLAND N/A N/A N/A N/A MISG N/A SMITHFIELD CLOUDY 68 60 75 N5 29.91R WESTERLY FAIR 73 64 73 N3 29.90S $$ CTZALL-232300- CONNECTICUT CITY SKY/WX TMP DP RH WIND PRES REMARKS BRADLEY INTL PTSUNNY 74 60 61 CALM 29.89R HARTFORD PTSUNNY 73 62 68 CALM 29.88S BRIDGEPORT CLOUDY 72 64 76 SE6 29.89R DANBURY CLOUDY 69 66 90 E7 29.91S GROTON PTSUNNY 73 60 63 N5 29.89R NEW HAVEN PTSUNNY 74 66 76 SE9 29.90R CHESTER CLOUDY 70 64 83 CALM 29.91S MERIDEN CLOUDY 73 62 68 N3 29.89F WILLIMANTIC CLOUDY 72 61 68 CALM 29.91R OXFORD CLOUDY 68 64 87 N6 29.92R $$ MEZ002-015-021-024-NHZ003-005-008-011-012-014-VTZ005-008-232300- NORTHERN NEW ENGLAND CITY SKY/WX TMP DP RH WIND PRES REMARKS PORTLAND ME CLOUDY 70 56 61 W3 29.86S BANGOR ME PTSUNNY 72 53 51 CALM 29.84R CONCORD NH PTSUNNY 72 55 55 SW5 29.88R MANCHESTER NH PTSUNNY 72 57 59 SW3 29.87R NASHUA NH FAIR 71 61 70 CALM 29.90R PORTSMOUTH NH PTSUNNY 70 57 63 W6 29.87R JAFFREY NH FAIR 70 58 65 CALM 29.92R KEENE NH FAIR 72 59 63 SW5 29.89R BURLINGTON VT PTSUNNY 78 50 37 CALM 29.86S MT. WASHINGTON FOG 46 46 100 NW17G25 N/A VSB 1/8 $$ NYZ052-076-232300- EASTERN NEW YORK CITY SKY/WX TMP DP RH WIND PRES REMARKS ALBANY PTSUNNY 76 57 51 SE5 29.87S NEW YORK CITY CLOUDY 74 63 68 E8 29.87F $$ ANZALL-232300- MARINE OBSERVATIONS STATION/POSITION TIME TEMP WIND PRES VSBY WAVE AIR SEA DIR/SP/G HT/PER (UTC) (F) (DEG/KT/KT) (MB) (MI) (FT/S) BOSTON BUOY NOT AVBL BUZZARDS BAY NOT AVBL NANTUCKET SOUND 2140 76 N/A 2/ 3 MASS BAY-STELLWA 2104 65 66 350/ 12/ 14 1011.2R 1 7/8 4/ 5 ISLE OF SHOALS 2100 66 300/ 6/ 6 1011.1R S OF BLOCK IS 2200 72 N/A 6/ 9 $$ ......................KEY......................... SKY/WX - SKY CONDITION/PRESENT WEATHER TMP - TEMPERATURE IN FAHRENHEIT DWPT - DEWPOINT IN FAHRENHEIT RH - RELATIVE HUMIDITY IN PERCENT WIND - DIRECTION AND SPEED IN MPH PRES - MEAN SEA LEVEL PRESSURE IN INCHES OF HG WCI - WIND CHILL INDEX VSB - VISIBILITY IN MILES HX - HEAT INDEX TC - TEMPERATURE IN CELSIUS VRB - VARIABLE WIND DIRECTION N/A - NOT AVAILABLE

USA.gov is the U.S. government's official web portal to all federal, state and local government web resources and services.